Location: *
(42.0175°N, 9.4056°E)
Time: 10:03:47
(UTC+00:00)

Cosmos 372 Rocket - Pass Details

Date: 25 August 2019
Orbit: 737 x 769 km, 74.1° (Epoch: 16 September)

Event Time Altitude Azimuth Distance (km) Brightness Sun altitude
Exits shadow 20:16:03 52° 117° (ESE) 941 4.0 -21.9°
Maximum altitude 20:16:19 53° 104° (ESE) 934 4.0 -22.0°
Drops below altitude 10° 20:21:23 10° 29° (NNE) 2,305 6.6 -22.7°
Sets 20:23:49 0° 25° (NNE) 3,239 7.4 -23.0°
